Torna al catalogo

STARLINK-11524

AttivoComunicazioniVLEO
NORAD 62839·PAYLOAD·🇺🇸 United States

Lanciato Jan 27, 2025 da Cape Canaveral Space Force Station

Loading…

Prossimi Passaggi (prossime 24 ore)

TLE

AggiornatoSource: CelesTrak SupGP

Epoca: Sep 14, 2026, 14:36 UTC

1 62839C 25019L   26257.60881944 -.00040351  00000+0 -31333-3 0  2574
2 62839  43.0008 247.6144 0001520 260.1864 278.7929 15.70864333    13

Traccia STARLINK-11524 in tempo reale con AllMySat

Download on the App Store